IRIS

Last updated on Thu Sep 10 2026 00:03:32 GMT+0000 (Coordinated Universal Time)

1 39197U 13033A 26252.47181401 .00000678 00000+0 83489-4 0 9998 2 39197 97.9284 91.4809 0025420 45.4358 314.8926 14.86028028712892
UTC large
Height (km)
Speed (km/s)
/
Latitude / Longitude
Inclination (degrees)
Orbital Period (minutes)
Azimuth
Elevation
Range (km)
Doppler Factor

Next 0 passes for location: London (51.5072 / 0.1276)

No passes found over London.
IRIS